Vorticity
nan nan nan nan nan nan nan nan nan nan nan nan nan nan nan nan nan nan nan nan nan nan nan nan nan nan nan nan nan nan nan nan nan
nan 3 4 5 5 7 5 5 6 7 8 6 4 5 8 7 7 7 7 12 7 6 9 6 5 6 6 6 6 6 5 5 nan
nan 4 6 6 7 7 6 5 3 4 6 5 4 6 10 9 7 8 9 12 6 6 9 8 6 6 6 7 7 6 5 5 nan
nan 6 6 7 7 6 8 7 7 7 3 3 3 5 10 10 7 7 9 10 7 5 6 8 7 6 6 5 7 7 5 6 nan
nan 5 8 7 7 7 7 7 5 5 5 5 4 3 3 10 9 8 13 9 7 5 5 6 7 7 6 5 7 7 4 5 nan
nan 6 7 9 8 6 5 4 4 -0 -2 -0 3 4 6 6 9 11 10 8 7 7 7 6 6 6 6 6 6 6 8 7 nan
nan 2 2 2 2 -2 -1 -1 -1 3 1 -1 2 4 7 6 7 10 10 10 8 7 6 6 6 6 7 6 5 8 8 6 nan
nan 2 1 0 -0 1 -0 0 2 6 9 9 6 8 8 6 1 2 15 18 8 7 6 6 7 7 7 7 6 7 6 6 nan
nan 6 7 7 5 7 6 7 7 6 8 8 8 8 9 9 4 -3 5 19 20 12 7 7 8 7 6 7 7 7 7 7 nan
nan 7 8 8 8 6 7 7 6 5 6 7 6 7 8 10 10 -2 -4 8 13 19 20 12 9 8 7 6 6 6 6 6 nan
nan 7 7 7 7 8 8 8 7 6 6 7 7 7 7 7 9 9 -4 -5 1 7 28 28 8 10 8 5 4 3 3 6 nan
nan 6 6 7 8 8 7 7 7 7 6 5 6 6 6 8 8 9 7 -2 -6 -1 10 27 25 10 6 5 5 10 11 8 nan
nan 7 8 8 7 6 7 5 6 6 7 6 6 7 6 6 7 9 9 8 4 -5 -2 7 24 21 14 12 8 10 10 10 nan
nan 8 9 8 7 8 6 9 8 7 6 7 7 7 6 7 6 6 8 8 10 5 -2 -2 0 16 18 13 11 8 8 8 nan
nan 8 8 7 7 7 8 8 9 9 5 3 5 7 7 8 7 6 6 6 7 9 7 4 -5 -2 12 10 6 6 5 4 nan
nan 7 7 8 9 9 7 6 6 5 4 3 3 5 5 7 8 8 7 7 7 8 9 10 7 -3 -1 11 9 4 5 4 nan
nan 8 6 9 8 8 6 4 3 5 7 8 7 6 4 4 6 9 7 8 8 6 7 8 9 10 2 1 6 10 7 6 nan
nan 8 8 7 8 7 6 7 8 6 8 10 9 9 9 5 4 7 8 8 9 7 6 7 8 8 8 5 6 7 7 6 nan
nan 10 10 7 7 8 7 8 8 9 9 5 6 12 14 8 6 6 7 7 7 8 8 7 7 9 6 2 9 11 8 6 nan
nan nan nan nan nan nan nan nan nan nan nan nan nan nan nan nan nan nan nan nan nan nan nan nan nan nan nan nan nan nan nan nan nan
CAPE
807 621 1118 1150 1024 1078 1061 901 976 1061 994 829 655 420 207 39 14 117 382 224 655 522 281 185 131 234 14 16 70 46 158 144 183
354 355 501 663 828 681 624 692 728 872 693 483 282 104 30 23 32 87 188 369 731 502 535 322 331 270 20 16 19 20 58 134 154
472 1016 991 891 789 681 608 581 388 460 292 184 68 20 10 20 56 73 166 493 637 558 659 474 381 177 30 11 11 15 64 126 157
848 995 1063 967 602 706 531 421 318 256 128 37 4 1 0 0 17 143 131 484 636 550 488 554 385 162 74 79 58 16 157 200 225
656 521 641 637 432 297 100 107 75 6 6 2 1 0 0 0 9 48 235 650 634 589 594 508 415 329 144 175 228 120 209 215 299
71 31 52 147 55 14 14 15 10 5 3 2 0 0 0 0 1 33 334 649 569 583 484 419 357 295 225 256 225 194 189 212 202
0 0 5 13 7 4 6 3 0 0 0 0 0 0 0 0 0 12 382 751 567 595 572 434 382 270 350 239 248 230 138 125 141
0 0 0 0 0 0 0 0 0 0 0 0 0 0 0 0 0 2 90 527 506 445 466 378 361 331 314 290 258 168 109 78 109
0 0 0 0 0 0 0 0 0 0 0 0 0 0 0 0 0 0 4 208 407 417 402 374 421 366 243 208 204 188 177 109 181
0 0 0 0 0 0 0 0 0 0 0 0 0 0 0 0 0 0 2 13 78 248 266 337 406 396 198 140 186 167 143 141 134
0 0 0 0 0 0 0 0 0 0 0 0 0 0 0 0 0 0 0 2 11 16 289 293 329 321 281 246 211 147 139 145 123
0 0 0 0 0 0 0 0 0 0 0 0 0 0 0 0 0 0 0 0 0 11 22 213 198 323 323 216 176 104 132 191 211
0 0 0 0 0 0 0 0 0 0 0 0 0 0 0 0 0 0 0 0 0 0 5 7 47 174 168 142 248 213 187 170 148
0 0 0 0 0 0 0 0 0 0 0 0 0 0 0 0 0 0 0 0 0 0 0 1 1 5 180 252 214 166 128 95 41
0 0 0 0 0 0 0 0 0 0 0 0 0 0 0 0 0 0 0 0 0 0 0 0 0 3 10 73 64 45 27 19 22
0 0 0 0 0 0 0 0 0 0 0 0 0 0 0 0 0 0 0 0 0 0 0 0 0 0 1 8 16 17 17 10 9
0 0 0 0 0 0 0 0 0 0 0 0 0 0 0 0 0 0 0 0 0 0 0 0 0 0 0 0 2 26 32 28 9
0 0 0 0 0 0 0 0 0 0 0 0 0 0 0 0 0 0 0 0 0 0 0 0 0 0 0 0 0 5 7 9 22
0 0 0 0 0 0 0 0 0 0 0 0 0 0 0 0 0 0 0 0 0 0 0 0 0 0 0 0 0 1 10 9 11
0 0 0 0 0 0 0 0 0 0 0 0 0 0 0 0 0 0 0 0 0 0 0 0 0 0 0 0 0 0 2 5 3